map of PGD home
PGD - Airport
Location
City:  Punta Gorda, Florida, United States
ICAO:KPGD
IATA:PGD
FAA LID:PGD

Details
Type:Airport (Part 139 Class I)
Use:Public/Civil
Latitude:2655'08"N (26.918938)
Longitude:8159'27"W (-81.990925)
Datum:WGS 1984
Elevation:25 ft (8 m)
Variation:5.81W (WMM2015v2 magnetic declination)
-0.08 annual change
Runways:3
Longest:7193 × 150 ft (2192 × 45.5 m), paved

Time
Time Zone:UTC-5 (DST-4)
Local Time:

Weather
METAR:KPGD 041409Z 00000KT 10SM OVC015 19/16 A3009 RMK AO2 T01940161
TAF:KPGD 041122Z 0412/0512 VRB04KT 4SM BR OVC008
TEMPO 0412/0414 1SM BR OVC005
FM041500 04006KT P6SM BKN020
FM041900 30007KT P6SM FEW030 BKN250
FM050200 VRB03KT P6SM FEW050 SCT200

Related Locations
Nearby:
Farthest:USL: 11493 mi / 18496 km
Useless Loop, WA, AU

Find:

   beyond  
but within

Other Information
Maps:
NOTAMs:
Links:
Sources:

  
  • flag of United States
  • flag of Florida
  

Airport Diagram

Airport diagram for PGD

Airport diagram PDF from FAA

Sectional Chart

Flight Planning
at skyvector.com

Satellite Image

Google Maps Satellite view

 

Copyright © 2004-2019 Karl L. Swartz. All rights reserved.
The Great Circle Mapper name and logo are trademarks of the Great Circle Mapper.
All other trademarks mentioned herein belong to their respective owners.
Please see credits for attibutions and further copyright information.

  Follow gcmap on Facebook Follow gcmap on Twitter GCmap on LinkedIn

hCard Microformat

Geo Microformat